Location: Peebles
(55.6412°N, 3.1714°W)
Time: 14:50:59
(UTC+01:00)

Cosmos 1356 Rocket - Pass Details

Date: 26 September 2021
Orbit: 542 x 598 km, 81.2° (Epoch: 17 October)

Event Time Altitude Azimuth Distance (km) Brightness Sun altitude
Rises 19:42:33 0° 206° (SSW) 2,828 7.2 -6.7°
Reaches altitude 10° 19:44:47 10° 210° (SSW) 1,934 6.4 -7.0°
Maximum altitude 19:49:00 55° 289° (WNW) 728 4.4 -7.6°
Drops below altitude 10° 19:53:15 10° 8° (N) 1,951 6.2 -8.2°
Sets 19:55:31 0° 13° (NNE) 2,855 6.9 -8.5°
